Washington, NE

11:27 AM CDT on September 29, 2016 (GMT -0500)
Blair Municipal

Weather History for KBTA - October, 2011

Change the Weather History Date:

Sunday, October 23, 2011

  Actual Average (KOMA) Record (KOMA)
Temperature  
Mean Temperature 58 °F 50 °F  
Max Temperature 77 °F 62 °F 84 °F (1899)
Min Temperature 39 °F 39 °F 20 °F (1981)
Degree Days  
Heating Degree Days 7 15  
Month to date heating degree days 250  
Since 1 July heating degree days 353  
Cooling Degree Days 0 0  
Month to date cooling degree days 12  
Year to date cooling degree days 1109  
Growing Degree Days 8 (Base 50)    
Moisture  
Dew Point 42 °F    
Average Humidity 67    
Maximum Humidity 100    
Minimum Humidity 26    
Precipitation  
Precipitation 0.00 in 0.06 in 0.84 in (1906)
Month to date precipitation 1.65  
Year to date precipitation 27.44  
Snow  
Snow 0.00 in 0.10 in - ()
Month to date snowfall 0.2  
Since 1 July snowfall 0.2  
Snow Depth -    
Sea Level Pressure  
Sea Level Pressure 29.95 in    
Wind  
Wind Speed 5 mph (SW)    
Max Wind Speed 14 mph    
Max Gust Speed 22 mph    
Visibility 6 miles    
Events Fog    
T = Trace of Precipitation, MM = Missing Value Source: NWS Daily Summary

Daily Weather History Graph

Daily Weather History Graph

Search for Another Location

Airport or City:

Trip Planner

Search our weather history database for the weather conditions in past years. The results will help you decide how hot, cold, wet, or windy it might be!

Date:

Astronomy

Oct. 23, 2011 Rise Set
Actual Time 7:45 AM CDT 6:31 PM CDT
Civil Twilight 7:16 AM CDT 6:59 PM CDT
Nautical Twilight 6:44 AM CDT 7:32 PM CDT
Astronomical Twilight 6:12 AM CDT 8:04 PM CDT
Moon 3:51 AM CDT (10/23) 4:25 PM CDT (10/23)
Length of Visible Light 11h 43m
Length of Day
10h 46m
Waning Crescent, 14% of the Moon is Illuminated
Oct 23
Waning Crescent
Oct 26
New
Nov 2
First Quarter
Nov 10
Full
Nov 18
Last Quarter

Hourly Weather History & Observations

Time (CDT) Temp. Windchill Dew Point Humidity Pressure Visibility Wind Dir Wind Speed Gust Speed Precip Events Conditions
12:15 AM 46.4 °F 45.2 °F 44.6 °F 93% 30.00 in 0.5 mi South 3.5 mph - N/A Fog Fog
12:35 AM 46.4 °F - 46.4 °F 100% 30.01 in 0.5 mi Calm Calm - N/A Fog Fog
12:55 AM 46.4 °F 45.2 °F 44.6 °F 93% 30.01 in 0.5 mi SSW 3.5 mph - N/A Fog Fog
1:15 AM 46.4 °F - 46.4 °F 100% 30.01 in 0.5 mi Calm Calm - N/A Fog Fog
1:55 AM 46.4 °F - 44.6 °F 93% 30.00 in 0.5 mi Calm Calm - N/A Fog Fog
2:35 AM 46.4 °F - 44.6 °F 93% 30.00 in 1.0 mi Calm Calm - N/A   Mist
2:55 AM 42.8 °F 41.1 °F 42.8 °F 100% 29.99 in 0.5 mi SSW 3.5 mph - N/A Fog Fog
3:15 AM 44.6 °F 42.2 °F 42.8 °F 93% 29.98 in 0.2 mi SSW 4.6 mph - N/A Fog Fog
3:35 AM 44.6 °F 43.1 °F 44.6 °F 100% 29.99 in 0.5 mi SSW 3.5 mph - N/A Fog Fog
3:55 AM 46.4 °F 45.2 °F 44.6 °F 93% 29.98 in 0.8 mi South 3.5 mph - N/A   Overcast
4:15 AM 44.6 °F - 44.6 °F 100% 29.97 in 0.2 mi Calm Calm - N/A Fog Fog
4:35 AM 44.6 °F 43.1 °F 42.8 °F 93% 29.97 in 0.2 mi SSW 3.5 mph - N/A Fog Fog
4:55 AM 44.6 °F 43.1 °F 42.8 °F 93% 29.97 in 0.2 mi SSW 3.5 mph - N/A Fog Fog
5:15 AM 44.6 °F 43.1 °F 44.6 °F 100% 29.96 in 0.2 mi South 3.5 mph - N/A Fog Fog
5:35 AM 41.0 °F 39.0 °F 39.2 °F 93% 29.96 in 0.2 mi South 3.5 mph - N/A Fog Fog
5:55 AM 42.8 °F 41.1 °F 41.0 °F 93% 29.96 in 0.2 mi South 3.5 mph - N/A Fog Fog
6:15 AM 42.8 °F 41.1 °F 41.0 °F 93% 29.96 in 0.2 mi SSE 3.5 mph - N/A Fog Fog
6:35 AM 41.0 °F 38.0 °F 41.0 °F 100% 29.95 in 0.2 mi South 4.6 mph - N/A Fog Fog
6:55 AM 39.2 °F 35.0 °F 37.4 °F 93% 29.95 in 0.2 mi South 5.8 mph - N/A Fog Fog
7:15 AM 41.0 °F 38.0 °F 41.0 °F 100% 29.95 in 0.5 mi SSW 4.6 mph - N/A Fog Fog
7:35 AM 42.8 °F 39.3 °F 41.0 °F 93% 29.95 in 0.2 mi SSW 5.8 mph - N/A Fog Fog
7:55 AM 42.8 °F 40.1 °F 41.0 °F 93% 29.95 in 0.5 mi SSW 4.6 mph - N/A Fog Fog
8:15 AM 42.8 °F 40.1 °F 41.0 °F 93% 29.96 in 1.5 mi SSW 4.6 mph - N/A   Mist
8:35 AM 41.0 °F 37.1 °F 41.0 °F 100% 29.95 in 5.0 mi South 5.8 mph - N/A   Clear
9:15 AM 46.4 °F 44.3 °F 44.6 °F 93% 29.96 in 7.0 mi South 4.6 mph - N/A   Clear
9:55 AM 50.0 °F - 46.4 °F 87% 29.96 in 10.0 mi SSW 4.6 mph - N/A   Clear
10:15 AM 50.0 °F - 50.0 °F 100% 29.96 in 10.0 mi SW 4.6 mph - N/A   Clear
10:35 AM 51.8 °F - 50.0 °F 94% 29.96 in 10.0 mi SW 5.8 mph - N/A   Clear
10:55 AM 53.6 °F - 51.8 °F 94% 29.95 in 10.0 mi SW 5.8 mph - N/A   Clear
11:35 AM 60.8 °F - 50.0 °F 68% 29.95 in 10.0 mi SW 8.1 mph - N/A   Clear
11:55 AM 62.6 °F - 48.2 °F 59% 29.94 in 10.0 mi SSW 9.2 mph - N/A   Clear
12:15 PM 62.6 °F - 50.0 °F 63% 29.94 in 10.0 mi SSW 8.1 mph - N/A   Clear
12:35 PM 66.2 °F - 50.0 °F 56% 29.93 in 10.0 mi SSW 9.2 mph - N/A   Clear
1:15 PM 68.0 °F - 50.0 °F 52% 29.91 in 10.0 mi SSW 10.4 mph - N/A   Clear
1:35 PM 69.8 °F - 50.0 °F 49% 29.90 in 10.0 mi SSW 10.4 mph - N/A   Clear
1:55 PM 69.8 °F - 50.0 °F 49% 29.90 in 10.0 mi SSW 12.7 mph 17.3 mph N/A   Clear
2:15 PM 71.6 °F - 48.2 °F 43% 29.89 in 10.0 mi South 11.5 mph 18.4 mph N/A   Clear
2:35 PM 73.4 °F - 44.6 °F 36% 29.88 in 10.0 mi SSW 12.7 mph 18.4 mph N/A   Clear
2:55 PM 73.4 °F - 44.6 °F 36% 29.88 in 10.0 mi SW 10.4 mph - N/A   Clear
3:15 PM 75.2 °F - 42.8 °F 31% 29.87 in 10.0 mi SW 11.5 mph - N/A   Clear
3:35 PM 77.0 °F - 41.0 °F 28% 29.87 in 10.0 mi WSW 13.8 mph - N/A   Clear
3:55 PM 77.0 °F - 39.2 °F 26% 29.87 in 10.0 mi WSW 13.8 mph 20.7 mph N/A   Clear
4:15 PM 77.0 °F - 39.2 °F 26% 29.87 in 10.0 mi WSW 12.7 mph 16.1 mph N/A   Clear
4:35 PM 75.2 °F - 39.2 °F 27% 29.87 in 10.0 mi West 12.7 mph 21.9 mph N/A   Clear
4:55 PM 75.2 °F - 39.2 °F 27% 29.87 in 10.0 mi West 12.7 mph 17.3 mph N/A   Clear
5:15 PM 73.4 °F - 41.0 °F 31% 29.88 in 10.0 mi WSW 8.1 mph - N/A   Clear
5:35 PM 73.4 °F - 41.0 °F 31% 29.88 in 10.0 mi West 5.8 mph - N/A   Clear
5:55 PM 73.4 °F - 41.0 °F 31% 29.89 in 10.0 mi West 6.9 mph - N/A   Clear
7:35 PM 64.4 °F - 35.6 °F 34% 29.94 in 10.0 mi NNW 12.7 mph 17.3 mph N/A   Clear
7:55 PM 62.6 °F - 35.6 °F 37% 29.95 in 10.0 mi NNW 10.4 mph - N/A   Clear
8:15 PM 62.6 °F - 35.6 °F 37% 29.96 in 10.0 mi NNW 10.4 mph - N/A   Clear
8:35 PM 60.8 °F - 35.6 °F 39% 29.97 in 10.0 mi NW 9.2 mph - N/A   Clear
8:55 PM 60.8 °F - 35.6 °F 39% 29.98 in 10.0 mi NW 6.9 mph - N/A   Clear
9:15 PM 59.0 °F - 35.6 °F 42% 29.98 in 10.0 mi NW 8.1 mph - N/A   Clear
9:35 PM 59.0 °F - 35.6 °F 42% 29.99 in 10.0 mi NW 8.1 mph - N/A   Clear
9:55 PM 57.2 °F - 35.6 °F 44% 30.00 in 10.0 mi Calm Calm - N/A   Clear
10:15 PM 55.4 °F - 35.6 °F 47% 30.01 in 10.0 mi Calm Calm - N/A   Clear
10:35 PM 55.4 °F - 35.6 °F 47% 30.01 in 10.0 mi Calm Calm - N/A   Clear
10:55 PM 55.4 °F - 35.6 °F 47% 30.02 in 10.0 mi Calm Calm - N/A   Clear
11:15 PM 53.6 °F - 35.6 °F 51% 30.01 in 10.0 mi NW 3.5 mph - N/A   Clear
11:35 PM 53.6 °F - 35.6 °F 51% 30.01 in 10.0 mi Calm Calm - N/A   Clear